CSN1462 LTCB-ZWSH

Flight info

Callsign CSN1462
Flight time N/A
Altitude 35000
Route IPSAT UM11 TBN UG261 NOLGA DCT TABAB B476 DARVA/K0806F350 T898 OGOLI N193 SR L163 OSH/K0809S1070 DCT OGIGI OGIGI8R
Aircraft B735/M-SDFHIW/S

Departure

Time 2026-05-06 06:23
Airport Ordu–Giresun Airport (LTCB)

Arrival

Time N/A
Airport Kashgar Laining International Airport (ZWSH)
Time Latitude Longitude Altitude Speed Heading
2026-05-06 05:48 40.96476 38.07960 17 ft 0 kts 192°
2026-05-06 06:15 40.96481 38.07961 18 ft 3 kts 192°
2026-05-06 06:15 40.96501 38.07967 20 ft 3 kts 192°
2026-05-06 06:15 40.96521 38.07973 18 ft 3 kts 196°
2026-05-06 06:15 40.96534 38.07980 18 ft 1 kts 217°
2026-05-06 06:16 40.96539 38.07991 17 ft 1 kts 268°
2026-05-06 06:16 40.96538 38.08002 21 ft 1 kts 281°
2026-05-06 06:18 40.96539 38.07997 21 ft 3 kts 281°
2026-05-06 06:19 40.96546 38.07947 17 ft 7 kts 281°
2026-05-06 06:19 40.96556 38.07875 17 ft 9 kts 281°
2026-05-06 06:19 40.96572 38.07795 17 ft 9 kts 297°
2026-05-06 06:19 40.96624 38.07777 18 ft 8 kts
2026-05-06 06:20 40.96681 38.07791 19 ft 8 kts 11°
2026-05-06 06:20 40.96739 38.07806 21 ft 9 kts 11°
2026-05-06 06:20 40.96799 38.07804 25 ft 10 kts 325°
2026-05-06 06:20 40.96828 38.07713 26 ft 12 kts 281°
2026-05-06 06:21 40.96850 38.07572 24 ft 19 kts 282°
2026-05-06 06:21 40.96880 38.07385 22 ft 20 kts 282°
2026-05-06 06:21 40.96906 38.07227 22 ft 15 kts 281°
2026-05-06 06:21 40.96924 38.07102 21 ft 12 kts 281°
2026-05-06 06:22 40.96922 38.06993 24 ft 12 kts 250°
2026-05-06 06:22 40.96911 38.06905 21 ft 8 kts 306°
2026-05-06 06:22 40.96952 38.06919 22 ft 8 kts 84°
2026-05-06 06:22 40.96951 38.06933 22 ft 0 kts 100°
2026-05-06 06:23 40.96913 38.07173 21 ft 58 kts 102°
2026-05-06 06:23 40.96783 38.07987 24 ft 123 kts 101°
2026-05-06 06:23 40.96550 38.09339 113 ft 173 kts 102°
2026-05-06 06:23 40.96295 38.10882 959 ft 168 kts 97°
2026-05-06 06:24 40.96287 38.12367 1914 ft 163 kts 86°
2026-05-06 06:24 40.96368 38.13963 2409 ft 179 kts 85°
2026-05-06 06:24 40.96485 38.15583 3076 ft 183 kts 83°
2026-05-06 06:24 40.96651 38.17343 3496 ft 200 kts 83°
2026-05-06 06:25 40.96820 38.19237 4042 ft 214 kts 83°
2026-05-06 06:25 40.97116 38.21242 4587 ft 230 kts 73°
2026-05-06 06:25 40.98417 38.25493 5764 ft 260 kts 65°
2026-05-06 06:26 40.99188 38.27685 6625 ft 265 kts 65°
2026-05-06 06:26 40.99972 38.29922 7426 ft 270 kts 65°
2026-05-06 06:26 41.00767 38.32201 8271 ft 274 kts 65°
2026-05-06 06:26 41.01568 38.34505 9214 ft 276 kts 65°
2026-05-06 06:27 41.02376 38.36830 10145 ft 282 kts 65°
2026-05-06 06:27 41.03212 38.39233 10758 ft 294 kts 65°
2026-05-06 06:27 41.04088 38.41750 11295 ft 308 kts 65°
2026-05-06 06:27 41.05009 38.44395 11905 ft 322 kts 65°
2026-05-06 06:28 41.05962 38.47134 12601 ft 332 kts 65°
2026-05-06 06:28 41.06933 38.49937 13389 ft 337 kts 65°
2026-05-06 06:28 41.07920 38.52782 14144 ft 342 kts 65°
2026-05-06 06:28 41.08919 38.55664 14913 ft 345 kts 66°
2026-05-06 06:29 41.09898 38.58586 15660 ft 349 kts 69°
2026-05-06 06:29 41.10567 38.61696 16337 ft 354 kts 82°
2026-05-06 06:29 41.10596 38.64963 17140 ft 357 kts 97°
2026-05-06 06:29 41.10177 38.68212 18116 ft 360 kts 101°
2026-05-06 06:30 41.09751 38.71506 18913 ft 365 kts 99°
2026-05-06 06:30 41.09398 38.74850 19558 ft 369 kts 97°
2026-05-06 06:30 41.09095 38.78210 20193 ft 373 kts 97°
2026-05-06 06:30 41.08800 38.81633 20870 ft 376 kts 97°
2026-05-06 06:31 41.08494 38.85092 21498 ft 380 kts 97°
2026-05-06 06:31 41.08177 38.88581 22119 ft 383 kts 97°
2026-05-06 06:31 41.07854 38.92098 22751 ft 387 kts 97°
2026-05-06 06:31 41.07526 38.95650 23355 ft 390 kts 97°
2026-05-06 06:32 41.07196 38.99243 23917 ft 394 kts 97°
2026-05-06 06:32 41.06866 39.02853 24457 ft 396 kts 97°
2026-05-06 06:32 41.06532 39.06490 24985 ft 399 kts 97°
2026-05-06 06:32 41.06196 39.10151 25490 ft 402 kts 97°
2026-05-06 06:33 41.05856 39.13836 26010 ft 404 kts 97°
2026-05-06 06:33 41.05510 39.17537 26525 ft 406 kts 98°
2026-05-06 06:33 41.05161 39.21248 27209 ft 404 kts 98°
2026-05-06 06:33 41.04814 39.24922 27886 ft 402 kts 98°
2026-05-06 06:34 41.04465 39.28623 28166 ft 410 kts 98°
2026-05-06 06:34 41.04104 39.32431 28310 ft 421 kts 98°
2026-05-06 06:34 41.03743 39.36287 28784 ft 423 kts 98°
2026-05-06 06:34 41.03379 39.40164 29239 ft 426 kts 98°
2026-05-06 06:35 41.03012 39.44077 29789 ft 428 kts 98°
2026-05-06 06:35 41.02645 39.47983 30364 ft 427 kts 98°
2026-05-06 06:35 41.02280 39.51884 30762 ft 429 kts 98°
2026-05-06 06:35 41.01906 39.55825 31101 ft 432 kts 98°
2026-05-06 06:36 41.01533 39.59784 31521 ft 434 kts 98°
2026-05-06 06:36 41.01160 39.63748 31890 ft 436 kts 98°
2026-05-06 06:36 41.00784 39.67743 32229 ft 438 kts 98°
2026-05-06 06:36 41.00407 39.71755 32602 ft 440 kts 98°
2026-05-06 06:37 41.00031 39.75782 32963 ft 442 kts 98°
2026-05-06 06:37 40.99773 39.79850 33285 ft 445 kts 92°
2026-05-06 06:37 40.99930 39.83959 33577 ft 449 kts 83°
2026-05-06 06:37 41.00480 39.88028 33993 ft 449 kts 78°
2026-05-06 06:38 41.01192 39.92066 34326 ft 451 kts 77°
2026-05-06 06:38 41.01892 39.96111 34607 ft 452 kts 78°
2026-05-06 06:38 41.02522 40.00197 34797 ft 452 kts 80°
2026-05-06 06:38 41.03093 40.04287 35009 ft 450 kts 81°
2026-05-06 06:39 41.03644 40.08367 35111 ft 451 kts 81°
2026-05-06 06:39 41.04794 40.16662 35132 ft 466 kts 80°
2026-05-06 06:40 41.06007 40.25155 35116 ft 469 kts 80°
2026-05-06 06:40 41.07204 40.33578 35119 ft 464 kts 80°
2026-05-06 06:41 41.08395 40.42022 35117 ft 467 kts 80°
2026-05-06 06:41 41.09589 40.50452 35117 ft 466 kts 80°
2026-05-06 06:42 41.10786 40.58902 35113 ft 465 kts 80°
2026-05-06 06:42 41.11972 40.67284 35109 ft 466 kts 80°
2026-05-06 06:43 41.13170 40.75734 35106 ft 466 kts 80°
2026-05-06 06:43 41.14365 40.84190 35106 ft 466 kts 80°
2026-05-06 06:44 41.15558 40.92634 35106 ft 466 kts 80°
2026-05-06 06:44 41.16753 41.01080 35109 ft 466 kts 80°
2026-05-06 06:45 41.17949 41.09547 35110 ft 467 kts 80°
2026-05-06 06:45 41.19140 41.18009 35110 ft 467 kts 80°
2026-05-06 06:46 41.20346 41.26490 35112 ft 467 kts 81°
2026-05-06 06:46 41.21546 41.34964 35108 ft 467 kts 81°
2026-05-06 06:47 41.22738 41.43436 35107 ft 466 kts 81°
2026-05-06 06:47 41.23932 41.51898 35109 ft 467 kts 80°
2026-05-06 06:48 41.25132 41.60373 35107 ft 467 kts 80°
2026-05-06 06:48 41.26331 41.68855 35109 ft 467 kts 81°
2026-05-06 06:49 41.27527 41.77344 35106 ft 467 kts 81°
2026-05-06 06:49 41.28726 41.85839 35112 ft 467 kts 81°
2026-05-06 06:50 41.29917 41.94329 35109 ft 467 kts 81°
2026-05-06 06:50 41.31022 42.02842 35102 ft 467 kts 82°
2026-05-06 06:51 41.32076 42.11362 35097 ft 467 kts 82°
2026-05-06 06:51 41.33135 42.19886 35091 ft 467 kts 82°
2026-05-06 06:52 41.34211 42.28419 35085 ft 468 kts 82°
2026-05-06 06:52 41.35286 42.36950 35073 ft 467 kts 82°
2026-05-06 06:53 41.36351 42.45484 35066 ft 468 kts 82°
2026-05-06 06:53 41.37415 42.53975 35061 ft 468 kts 82°
2026-05-06 06:54 41.38485 42.62516 35049 ft 468 kts 82°
2026-05-06 06:54 41.39557 42.71060 35036 ft 468 kts 82°
2026-05-06 06:55 41.40631 42.79621 35037 ft 469 kts 82°
2026-05-06 06:55 41.41703 42.88185 35031 ft 469 kts 82°
2026-05-06 06:56 41.42707 42.96764 35024 ft 468 kts 86°
2026-05-06 06:56 41.42691 43.05403 35029 ft 466 kts 97°
2026-05-06 06:57 41.41996 43.13969 35036 ft 466 kts 97°
2026-05-06 06:57 41.41469 43.22578 35036 ft 467 kts 96°
2026-05-06 06:58 41.41044 43.31209 35040 ft 467 kts 96°
2026-05-06 06:58 41.40662 43.38386 35040 ft 468 kts 96°
2026-05-06 06:59 41.40187 43.47024 35042 ft 468 kts 96°
2026-05-06 06:59 41.39719 43.55660 35042 ft 468 kts 96°
2026-05-06 07:00 41.39248 43.64307 35041 ft 469 kts 96°
2026-05-06 07:00 41.38779 43.72966 35041 ft 468 kts 96°
2026-05-06 07:01 41.38311 43.81622 35043 ft 469 kts 96°
2026-05-06 07:01 41.37838 43.90286 35040 ft 469 kts 96°
2026-05-06 07:02 41.37367 43.98957 35039 ft 470 kts 96°
2026-05-06 07:02 41.36899 44.07634 35039 ft 470 kts 96°
2026-05-06 07:03 41.36426 44.16327 35038 ft 471 kts 97°
2026-05-06 07:03 41.35952 44.25022 35036 ft 471 kts 97°
2026-05-06 07:04 41.35479 44.33735 35037 ft 472 kts 97°
2026-05-06 07:04 41.35007 44.42440 35043 ft 471 kts 97°
2026-05-06 07:05 41.34537 44.51086 35043 ft 472 kts 97°
2026-05-06 07:05 41.34060 44.59804 35038 ft 472 kts 97°
2026-05-06 07:06 41.33594 44.68527 35033 ft 473 kts 97°
2026-05-06 07:06 41.33121 44.77254 35030 ft 473 kts 97°
2026-05-06 07:07 41.32642 44.86014 35022 ft 475 kts 97°
2026-05-06 07:07 41.32172 44.94737 35019 ft 471 kts 97°
2026-05-06 07:08 41.31694 45.03508 35022 ft 478 kts 97°
2026-05-06 07:08 41.31214 45.12269 35015 ft 472 kts 97°
2026-05-06 07:09 41.30748 45.20994 35022 ft 477 kts 98°
2026-05-06 07:09 41.30266 45.29792 35014 ft 476 kts 98°
2026-05-06 07:10 41.29790 45.38544 35024 ft 474 kts 98°
2026-05-06 07:10 41.29316 45.47288 35026 ft 474 kts 98°
2026-05-06 07:11 41.28836 45.56047 35024 ft 475 kts 98°
2026-05-06 07:11 41.28363 45.64799 35027 ft 475 kts 98°
2026-05-06 07:12 41.27888 45.73554 35027 ft 475 kts 98°
2026-05-06 07:12 41.27411 45.82315 35032 ft 475 kts 98°
2026-05-06 07:13 41.26931 45.91095 35035 ft 476 kts 98°
2026-05-06 07:13 41.26456 45.99797 35040 ft 475 kts 98°
2026-05-06 07:14 41.25984 46.08562 35040 ft 476 kts 98°
2026-05-06 07:14 41.25508 46.17336 35045 ft 477 kts 99°
2026-05-06 07:15 41.25028 46.26128 35045 ft 477 kts 99°
2026-05-06 07:15 41.24551 46.34911 35049 ft 476 kts 99°
2026-05-06 07:16 41.24077 46.43694 35052 ft 477 kts 99°
2026-05-06 07:16 41.23599 46.52490 35059 ft 477 kts 99°
2026-05-06 07:17 41.23124 46.61282 35067 ft 477 kts 99°
2026-05-06 07:17 41.22635 46.70069 35061 ft 477 kts 99°
2026-05-06 07:18 41.22160 46.78848 35065 ft 477 kts 99°
2026-05-06 07:18 41.21681 46.87664 35062 ft 479 kts 100°
2026-05-06 07:19 41.21204 46.96482 35051 ft 478 kts 100°
2026-05-06 07:19 41.20726 47.05288 35050 ft 478 kts 100°
2026-05-06 07:20 41.20251 47.14110 35040 ft 477 kts 100°
2026-05-06 07:20 41.19760 47.22941 35042 ft 482 kts 100°
2026-05-06 07:21 41.19277 47.31816 35032 ft 482 kts 100°
2026-05-06 07:21 41.18784 47.40661 35029 ft 481 kts 100°
2026-05-06 07:22 41.18298 47.49536 35014 ft 481 kts 100°
2026-05-06 07:22 41.17833 47.58393 35008 ft 482 kts 100°
2026-05-06 07:23 41.17352 47.67271 34993 ft 482 kts 100°
2026-05-06 07:23 41.16867 47.76128 34997 ft 482 kts 100°
2026-05-06 07:24 41.16382 47.85028 34996 ft 484 kts 100°
2026-05-06 07:24 41.15897 47.93939 34995 ft 484 kts 100°
2026-05-06 07:25 41.15418 48.02784 34996 ft 485 kts 100°
2026-05-06 07:25 41.14939 48.11688 34999 ft 484 kts 100°
2026-05-06 07:26 41.14450 48.20632 35000 ft 486 kts 100°
2026-05-06 07:26 41.13972 48.29558 35003 ft 484 kts 99°
2026-05-06 07:27 41.13486 48.38452 35005 ft 483 kts 100°
2026-05-06 07:27 41.12992 48.47318 35005 ft 483 kts 99°
2026-05-06 07:28 41.12505 48.56221 35005 ft 482 kts 99°
2026-05-06 07:28 41.11781 48.69514 35012 ft 484 kts 99°
2026-05-06 07:29 41.11298 48.78407 35008 ft 483 kts 99°
2026-05-06 07:29 41.10821 48.87273 35015 ft 482 kts 99°
2026-05-06 07:30 41.10406 48.94656 35018 ft 484 kts 100°